This is the latest recevied weather packets stored in our database for station/object KK6MIG-13. If no packets are shown the sender has not sent any weather packets the latest 1 day(s).
| Time | Temp. | Humidity | Pressure | Rain* | Wind** | Luminosity | Snow |
|---|---|---|---|---|---|---|---|
| 1778002705 | 13.33° C | 1% | 1014.5 hPa | 0 mm | 3.58 m/s, 280° | 374 W/m² | - |
| 1778002645 | 13.33° C | 1% | 1014.5 hPa | 0 mm | 3.58 m/s, 284° | 381 W/m² | - |
| 1778002579 | 13.33° C | 1% | 1014.6 hPa | 0 mm | 3.58 m/s, 274° | 392 W/m² | - |
| 1778002519 | 13.33° C | 1% | 1014.6 hPa | 0 mm | 3.58 m/s, 265° | 401 W/m² | - |
| 1778002459 | 13.33° C | 1% | 1014.6 hPa | 0 mm | 3.58 m/s, 274° | 411 W/m² | - |
| 1778002398 | 13.33° C | 1% | 1014.6 hPa | 0 mm | 3.58 m/s, 278° | 406 W/m² | - |
| 1778002337 | 13.33° C | 1% | 1014.5 hPa | 0 mm | 3.58 m/s, 290° | 399 W/m² | - |
| 1778002273 | 13.33° C | 1% | 1014.5 hPa | 0 mm | 3.58 m/s, 313° | 390 W/m² | - |
| 1778002210 | 13.33° C | 1% | 1014.5 hPa | 0 mm | 4.02 m/s, 247° | 378 W/m² | - |
| 1778002150 | 13.33° C | 1% | 1014.5 hPa | 0 mm | 4.02 m/s, 294° | 366 W/m² | - |
| 1778002092 | 13.33° C | 1% | 1014.5 hPa | 0 mm | 4.02 m/s, 271° | 357 W/m² | - |
| 1778002030 | 13.33° C | 1% | 1014.5 hPa | 0 mm | 3.58 m/s, 275° | 352 W/m² | - |
| 1778001967 | 13.33° C | 1% | 1014.5 hPa | 0 mm | 3.58 m/s, 259° | 343 W/m² | - |
| 1778001907 | 13.33° C | 1% | 1014.6 hPa | 0 mm | 4.02 m/s, 245° | 332 W/m² | - |
| 1778001846 | 13.33° C | 1% | 1014.5 hPa | 0 mm | 4.02 m/s, 279° | 315 W/m² | - |
| 1778001786 | 13.33° C | 1% | 1014.6 hPa | 0 mm | 3.58 m/s, 282° | 287 W/m² | - |
| 1778001727 | 13.33° C | 1% | 1014.6 hPa | 0 mm | 3.58 m/s, 283° | 283 W/m² | - |
| 1778001682 | 13.33° C | 1% | 1014.5 hPa | 0 mm | 3.58 m/s, 248° | 292 W/m² | - |
| 1778001678 | 13.33° C | 1% | 1014.5 hPa | 0 mm | 3.58 m/s, 300° | 295 W/m² | - |
| 1778001674 | 13.33° C | 1% | 1014.6 hPa | 0 mm | 3.58 m/s, 251° | 299 W/m² | - |
| 1778001485 | 13.33° C | 1% | 1014.5 hPa | 0 mm | 3.58 m/s, 285° | 297 W/m² | - |
| 1778001425 | 13.33° C | 1% | 1014.4 hPa | 0 mm | 3.58 m/s, 273° | 304 W/m² | - |
| 1778001365 | 13.33° C | 1% | 1014.4 hPa | 0 mm | 3.58 m/s, 300° | 302 W/m² | - |
| 1778001304 | 13.33° C | 1% | 1014.4 hPa | 0 mm | 3.58 m/s, 265° | 309 W/m² | - |
| 1778001245 | 13.33° C | 1% | 1014.4 hPa | 0 mm | 3.58 m/s, 296° | 301 W/m² | - |
* Rain latest hour (hover to see other rain measurements)
** Current wind speed in m/s (hover to see current wind gust speed)